Regional Weather Roundup
Issued by NWS

Home | Current Version | Previous Version | Graphics & Text | Print | Product List | Glossary Off
Versions: 1 2 3 4 5 6 7 8 9 10 11 12 13 14 15 16 17 18 19 20 21 22 23 24 25 26 27 28 29 30 31 32 33 34 35 36 37 38 39 40 41 42 43 44 45 46 47 48 49

000
ASUS43 KDMX 280007
RWRIA

WEATHER ROUNDUP FOR IOWA
NATIONAL WEATHER SERVICE DES MOINES IA
700 PM CDT WED MAY 27 2015

NOTE: "FAIR" INDICATES FEW OR NO CLOUDS BELOW 12,000 FEET WITH NO
SIGNIFICANT WEATHER AND/OR OBSTRUCTIONS TO VISIBILITY.

* - THESE STATIONS ARE NOT NWS STATIONS...THUS NOT UNDER NWS
QUALITY CONTROL.  THEY ALSO DO NOT REPORT WEATHER SUCH
AS PRECIPITATION OR FOG.

IAZ001>003-012>014-020>022-031>034-043>046-280100-
   NORTHWEST IOWA

CITY           SKY/WX    TMP DP  RH WIND       PRES   REMARKS
CARROLL *      SUNNY     82  48  30 CALM      30.02F HX  81
CHEROKEE *     MOSUNNY   79  55  43 SW3       30.00F
DENISON *      SUNNY     81  52  36 CALM      30.01F HX  80
LE MARS *      SUNNY     82  48  30 SW8       30.00F HX  81
ORANGE CITY *  SUNNY     79  48  34 SW10      30.01S
SHELDON *      SUNNY     82  79  89 S9        29.99F HX  93
SIOUX CITY     SUNNY     82  50  32 S9        29.99F HX  81
6HR MIN TEMP:  79; 6HR MAX TEMP:  85;

SPENCER        SUNNY     83  48  29 SW10      30.00F HX  81
6HR MIN TEMP:  80; 6HR MAX TEMP:  86;

STORM LAKE *   MOSUNNY   81  48  32 S7        30.03F HX  80
$$

IAZ055>058-069>071-079>083-090>094-280100-
   SOUTHWEST IOWA

CITY           SKY/WX    TMP DP  RH WIND       PRES   REMARKS
ATLANTIC *     SUNNY     79  54  41 SW9       30.03F
AUDUBON *      SUNNY     81  52  36 S3        30.05S HX  80
CLARINDA *     SUNNY     79  54  41 S9        30.06S
COUNCIL BLFS * SUNNY     77  55  47 S7        30.04S
CRESTON *      SUNNY     77  57  50 SW7       30.06S
HARLAN  *      SUNNY     81  48  32 SW6       30.06F HX  80
LAMONI         MOSUNNY   80  60  50 SW5       30.06F HX  81
6HR MIN TEMP:  79; 6HR MAX TEMP:  84;

RED OAK *      SUNNY     81  52  36 SW9       30.04S HX  80
SHENANDOAH *   SUNNY     81  52  36 S9        30.04S HX  80
$$

IAZ047>049-059>061-072>074-084-280100-
   CENTRAL IOWA

CITY           SKY/WX    TMP DP  RH WIND       PRES   REMARKS
AMES           SUNNY     77  57  50 S6        30.03F
6HR MIN TEMP:  77; 6HR MAX TEMP:  81;

ANKENY *       SUNNY     79  59  50 S6        30.03F HX  80
CHARITON *     SUNNY     79  57  47 CALM      30.06S HX  80
DES MOINES     MOSUNNY   80  54  40 SW8       30.03F HX  80
6HR MIN TEMP:  78; 6HR MAX TEMP:  82;

GRINNELL*      SUNNY     79  54  41 CALM      30.06S
KNOXVILLE *    SUNNY     79  55  44 SW5       30.04S
MARSHALLTOWN   SUNNY     77  57  50 SW7       30.03F
6HR MIN TEMP:  75; 6HR MAX TEMP:  79;

PELLA *        SUNNY     80  61  52 CALM      30.06S HX  81
PERRY *          N/A     80  53  40 SW3       30.03F HX  80
$$

IAZ004>006-015-016-023>025-035-036-280100-
   NORTH CENTRAL IOWA

CITY           SKY/WX    TMP DP  RH WIND       PRES   REMARKS
ALGONA *       SUNNY     82 -29   1 S6        30.01S
CLARION *      SUNNY     82 -33   1 SW12      30.02S
ESTHERVILLE    PTSUNNY   80  52  37 SW3       29.99F HX  80
6HR MIN TEMP:  77; 6HR MAX TEMP:  83;

FORT DODGE *   SUNNY     79  55  44 S9        30.03S
MASON CITY     SUNNY     80  54  40 SW7       30.02F HX  80
6HR MIN TEMP:  76; 6HR MAX TEMP:  82;

FOREST CITY *    N/A     79  50  36 CALM      30.01S
IOWA FALLS *     N/A     79  54  41 SW8       30.04F
$$

IAZ007>011-017>019-026>030-037>042-050>054-066-280100-
   NORTHEAST IOWA

CITY           SKY/WX    TMP DP  RH WIND       PRES   REMARKS
CEDAR RAPIDS   SUNNY     77  58  51 SW9       30.04S
6HR MIN TEMP:  73; 6HR MAX TEMP:  79;

CHARLES CITY * SUNNY     81  55  41 SW6       30.02S HX  80
CLINTON *      MOSUNNY   75  57  53 NW6       30.08S
DECORAH *      SUNNY     79  57  47 VRB5      30.01S HX  80
DUBUQUE        SUNNY     74  58  57 SW7       30.05S
6HR MIN TEMP:  71; 6HR MAX TEMP:  77;

MONTICELLO *   SUNNY     77  59  53 SW7       30.05S
OELWEIN *      SUNNY     79  57  47 W9        30.04S HX  80
WATERLOO       SUNNY     79  57  46 W7        30.02S HX  80
6HR MIN TEMP:  75; 6HR MAX TEMP:  80;

$$

IAZ064-065-067-068-078-280100-
   EAST CENTRAL IOWA

CITY           SKY/WX    TMP DP  RH WIND       PRES   REMARKS
DAVENPORT      MOSUNNY   77  55  46 W5        30.07S
6HR MIN TEMP:  73; 6HR MAX TEMP:  79;

IOWA CITY      SUNNY     78  55  44 SW7       30.06S
6HR MIN TEMP:  74; 6HR MAX TEMP:  79;

MT. PLEASANT * SUNNY     78  55  44 CALM      30.07S
MUSCATINE *    SUNNY     79  57  47 SW5       30.06S HX  80
QUAD CITIES    SUNNY     77  56  48 W7        30.06R
6HR MIN TEMP:  75; 6HR MAX TEMP:  80;

$$

IAZ062-063-075>077-085>089-095>099-280100-
   SOUTHEAST IOWA

CITY           SKY/WX    TMP DP  RH WIND       PRES   REMARKS
BURLINGTON     SUNNY     78  57  48 W5        30.07S
6HR MIN TEMP:  73; 6HR MAX TEMP:  80;

FAIRFIELD *    SUNNY     79  52  38 CALM      30.07S
FORT MADISON * SUNNY     77  57  50 N3        30.08S
KEOKUK *       SUNNY     77  57  50 CALM      30.07S
OSKALOOSA *      N/A     79  53  41 W5        30.06S
CENTERVILLE *  SUNNY     79  79 100 CALM      30.09S HX  83
OTTUMWA        SUNNY     78  56  46 SW3       30.06S
6HR MIN TEMP:  74; 6HR MAX TEMP:  80;

WASHINGTON *   SUNNY     79  57  47 SW6       30.08S HX  80
$$

ABBREVIATIONS USED IN REMARKS
   TC - TEMPERATURES IN CELSIUS
  WCI - WIND CHILL INDEX
   HX - HEAT INDEX
  VSB - VISIBILITY
$$




USA.gov is the U.S. government's official web portal to all federal, state and local government web resources and services.